CZ-6A DEB, 61276

Orbit data source: Space-Track

CZ-6A DEB, 61276 is space debris in LEO originally from a launch on Tue, 06 Aug 2024 UTC launched from the Taiyaun Space Center, China (TSC). Debris objects in space refer to the collection of defunct objects orbiting the Earth. Examples of debris include non-operational satellites, rocket bodies, and fragments generated from explosions, collisions, or faulty payload assembly.

Loading next visibility...
Identifier
61276, 2024-140SM
Orbit
LEO
Country
Flag of CNCN / PRC
Related business
Manufacturer
SAST
Mission
Spacecraft
Bus & Motor
Unknown
Mass
Unknown
Launch date (UTC)
2024-08-06 (2 years ago)
Launch vehicle
Unknown
Launch site
Taiyaun Space Center, China (TSC)
Object type
Payload
Rocket body
Debris
Shape & HBR
Unknown shape, 0.1 m
Radar Cross Section
Medium (>0.1 m² and <1 m²)

Expand to show TLE details & history
Last TLE update: 13 hours ago

TLE from 13 hours ago
0 CZ-6A DEB
1 61276U 24140SM  26171.29052491  .00000809  00000-0  32567-3 0  9995
2 61276  89.0066 273.9738 0025552 180.5099 179.6073 14.27031833 94450
Epoch: 2026-06-20T06:58Z
TLE epoch observation values (Epoch: 2026-06-20T06:58:21.352Z)
Latitude
-0.00006°
Longitude
-99.12243°
Altitude
823.082 km
Speed
7.432 km/s
True Right ascension
18h 15m 53s
True Declination
0° 00' 00"
Sunlit
Object was in full shadow at epoch
Visualization orbit readout
Latitude
Unknown
Longitude
Unknown
Altitude
Unknown
Speed
Unknown
Apparent Right ascension
Unknown
Apparent Declination
Unknown
Sunlit
N/A
Visualization observer readout
Local Sidereal Time
07:21:48
Azimuth
Unknown
Elevation
Unknown
Doppler factor
Unknown
Orbital elements
Apogee altitude
816.949 km
Perigee altitude
780.272 km
Semi-major axis
7,176.747 km
Eccentricity
0.00256
Inclination
89.0066°
RAAN
273.9738°
Arg. of periapsis
180.5099°
True anomaly
179.6093°
Mean anomaly
179.6073°
Eccentric anomaly
179.6083°
Mean motion
3.56986 °/min
Orbital period
100.84 mins
BSTAR
0.00032567
Loading maneuver chart data...
Computing Atmospheric mass density...
Loading historical data...
Loading historical data...
Loading historical data...
Loading historical data...
Loading historical data...
Loading historical data...
Loading historical data...

Documentation

Showing up to 5 results
|